Find Starlink 2285

NORAD ID: 48019 Int'l Des: 2021-024 Owner: SPXS Country: US Constellation: starlink operational
LEOCIRCULAR

現在のビュー

3D地球を読み込み中...

About Starlink 2285

Starlink 2285 (NORAD 48019) is a starlink constellation satellite (v1.0) launched Mar 24, 2021 by SPXS of US. It operates in LEO, CIRCULAR orbit with a mass of 260.00 kg.

Starlink 2285について

説明を読み込み中...

次回通過

Passes for default location (London). Set your location on the main map for personalized predictions.

高度履歴

Loading altitude history...

軌道要素

1 48019U 21024AU 26166.41128951 .00002203 00000-0 82702-4 0 9993
2 48019 53.1590 212.2689 0001127 96.5539 263.5591 15.31709299289898
Epoch: Jun 15, 2026 • Age: 26 hours

現在のステータス

高度 473.8 km
速度 7.63 km/s
衛星直下点 -11.17°S, 45.6°W
打ち上げ日 Mar 24, 2021
運用期間 5.2 years
タイプ internet

技術仕様

分類 Payload
質量 260.00 kg
乾燥質量 248.00 kg
総質量 260.00 kg
長さ 0.20 m
直径 2.80 m
スパン 9.00 m
形状 Box + pan
製造者 SPXS
バスタイプ Starlink
フェーズステータス In Orbit
所有者/国 SPXS/US

Most Searched